Wind_Speed
8 7 7 6 5 5 4 4 4 5 6 7 7 7 7 6 6 6 6 5 6 6 6 6 5 5 4 4 4 4 4 5 5 6 7 7 8 8 9 9 10 10 10 11 11 11 13 14 15 16 17 18 20 21 22 23 25 25 26 26 26 26 27 28 29 30 31 32 32 33 33 34 36 35
7 7 7 7 7 6 5 4 4 5 6 7 7 8 7 7 6 6 6 5 6 6 5 5 4 3 2 2 3 3 4 4 5 6 7 7 8 9 9 10 10 11 12 12 13 13 14 15 17 18 19 20 21 22 23 24 25 25 26 26 27 27 28 28 29 30 31 33 33 34 34 34 35 35
5 6 6 6 6 5 4 4 4 4 5 5 6 6 6 6 5 5 5 5 5 5 4 4 3 2 2 2 2 3 4 5 6 6 7 8 9 10 11 11 11 11 12 14 14 15 15 16 17 18 20 21 23 24 24 25 26 26 27 28 28 28 28 29 29 30 31 33 34 34 34 34 34 35
5 5 5 5 4 3 4 4 3 3 3 4 5 5 6 5 4 4 4 3 3 3 3 2 1 1 2 3 4 5 5 6 7 8 9 9 10 11 12 12 13 12 13 14 15 16 16 17 17 19 20 21 23 25 26 27 27 28 28 29 29 29 30 30 30 31 31 32 33 34 34 35 34 34
6 6 5 5 4 4 4 3 2 2 3 3 4 5 5 5 4 4 3 2 1 1 1 0 0 1 2 4 5 6 7 7 9 10 11 11 11 11 12 13 13 13 13 14 15 16 17 19 20 21 22 23 25 26 27 28 28 28 29 30 30 29 30 30 31 31 31 32 32 33 34 35 35 34
8 8 7 6 6 5 5 3 2 2 2 3 3 4 4 4 4 3 2 2 1 0 0 1 1 2 3 4 5 7 8 8 9 11 12 12 12 12 12 13 15 15 15 16 17 18 19 20 21 23 24 25 26 27 28 28 28 28 29 29 29 29 28 29 30 31 31 31 31 31 32 34 35 35
9 10 10 9 8 8 7 6 5 4 3 3 3 3 3 3 2 2 2 2 1 0 1 2 3 4 5 5 6 7 8 9 10 11 13 13 13 14 14 14 16 17 17 18 19 20 21 22 23 25 26 26 27 27 28 28 29 28 28 29 29 28 28 28 29 30 30 31 31 31 31 33 35 35
11 11 11 10 10 10 9 8 7 6 5 4 4 4 4 3 3 2 2 1 1 1 2 3 3 4 5 6 8 8 9 11 12 13 14 15 15 16 16 16 17 19 20 22 23 23 24 25 26 27 28 28 29 29 29 29 30 30 30 29 29 29 29 28 28 29 30 31 31 31 30 31 33 35
12 13 12 11 11 11 11 10 8 7 6 6 5 5 5 5 4 3 2 1 0 1 3 3 4 4 5 7 9 10 10 11 13 14 15 15 16 17 18 19 20 21 22 24 26 27 28 29 30 31 32 32 32 31 31 31 32 33 33 33 32 32 32 32 31 31 31 31 32 32 31 30 31 34
14 14 13 12 12 13 12 10 9 8 7 7 6 5 5 5 4 3 3 2 1 1 3 5 6 7 9 10 12 14 14 13 14 16 16 16 18 19 20 21 22 23 24 25 27 29 30 32 33 35 36 36 36 35 34 34 35 37 37 38 38 36 35 36 36 35 34 33 33 32 32 31 31 32
15 15 14 13 14 15 13 10 9 8 8 8 7 6 6 5 4 3 3 2 2 2 3 5 6 8 10 12 14 16 18 18 18 18 17 17 19 21 21 22 23 25 25 26 28 30 32 33 34 35 37 38 38 37 37 37 39 40 40 40 40 38 36 36 36 35 35 34 34 33 32 32 31 31
16 15 15 14 15 15 14 11 9 10 10 9 8 7 6 5 4 3 2 2 2 3 4 6 8 9 11 13 16 18 19 20 20 21 20 19 20 22 23 23 25 27 27 28 30 31 31 31 31 33 35 37 38 38 38 38 38 39 39 38 38 37 35 34 33 33 33 33 33 32 32 32 32 31
16 16 15 15 15 14 13 11 10 11 11 10 9 7 6 5 4 4 5 5 5 6 6 8 10 11 12 15 18 19 20 22 22 22 22 21 22 23 22 22 24 26 26 26 26 28 30 32 35 38 40 41 42 41 40 39 38 36 36 36 36 37 36 35 34 33 34 35 34 33 32 33 33 31
16 17 16 15 14 13 13 12 11 11 11 10 9 7 6 5 5 6 8 9 9 9 10 11 13 14 15 18 19 20 21 23 24 24 24 24 25 25 24 21 21 25 29 31 31 34 38 42 45 45 44 44 43 41 40 39 38 37 37 37 39 39 39 38 37 35 35 37 37 36 34 35 35 32
17 17 16 15 13 13 13 13 11 11 11 10 9 7 6 6 7 9 10 12 13 13 13 13 15 16 16 18 20 22 23 25 27 28 29 30 30 30 29 26 25 30 39 44 44 44 47 50 50 47 45 45 44 41 40 39 40 42 42 41 42 42 39 39 37 34 34 36 37 37 36 36 36 34
16 16 16 15 14 14 14 13 12 12 11 10 9 7 7 8 9 11 12 14 15 16 16 15 16 17 17 18 21 24 26 28 30 32 34 36 37 36 35 35 34 37 45 49 47 45 46 49 50 48 46 44 41 40 41 43 45 46 44 44 45 43 40 39 36 34 33 34 35 37 36 35 36 35
15 15 16 15 15 15 14 13 13 13 12 10 9 8 8 10 12 14 14 15 16 17 18 17 17 18 19 20 23 26 29 31 33 37 41 41 41 39 39 41 40 41 46 48 46 43 44 46 47 45 46 45 42 42 44 47 48 46 44 46 46 44 43 43 39 36 35 35 36 37 37 36 35 35
15 15 16 16 16 16 15 14 14 14 12 11 10 10 11 13 15 16 16 17 17 18 19 18 17 18 20 22 25 28 32 34 38 44 45 44 44 40 39 41 42 42 46 48 45 41 41 44 45 42 44 47 46 45 46 46 46 45 44 46 45 44 45 46 43 41 38 36 37 37 36 36 36 34
16 16 16 17 17 17 16 16 16 15 14 13 12 13 14 15 17 18 18 19 19 19 19 19 19 20 22 25 28 32 36 39 44 48 47 47 47 42 40 43 42 41 44 48 48 43 39 43 46 43 42 44 43 42 42 41 43 44 44 43 44 44 46 46 45 43 41 39 38 37 36 37 36 34
16 17 17 18 18 17 18 18 17 16 15 14 15 16 17 18 19 19 20 21 21 20 20 21 22 24 26 28 31 36 40 42 47 49 48 49 49 45 42 41 40 40 44 48 50 46 41 41 44 42 41 40 37 36 37 38 40 42 42 43 44 45 46 46 45 44 42 40 38 36 35 36 36 36
17 18 18 19 19 18 19 19 18 18 17 16 17 19 20 21 21 20 21 22 22 22 23 24 26 28 30 32 35 39 43 45 48 51 51 51 50 46 43 41 41 43 47 50 52 49 43 43 44 42 39 36 32 31 33 35 38 40 41 43 45 45 46 45 44 44 43 41 38 36 35 34 35 35
18 19 20 19 19 19 19 20 19 19 19 19 20 22 23 23 22 22 23 23 23 23 25 26 28 31 33 35 37 40 44 47 50 52 52 51 50 48 45 44 43 43 45 50 53 49 43 42 43 42 39 33 30 31 34 37 39 40 41 44 45 45 46 45 43 43 43 41 39 38 37 35 34 33
19 20 20 20 19 19 20 21 21 22 22 22 23 24 24 24 23 24 25 24 23 23 25 27 30 33 35 36 38 40 44 48 51 53 52 50 50 49 48 47 46 43 42 46 48 45 41 40 40 41 39 34 30 31 34 37 40 41 42 43 44 45 46 47 46 44 44 43 41 40 38 36 34 33
20 21 21 21 21 21 21 22 22 23 24 24 25 26 26 25 26 26 26 25 25 25 26 28 31 34 36 36 37 39 42 45 49 51 52 50 50 50 49 49 49 47 45 45 45 42 40 40 39 39 39 37 34 32 32 34 37 40 41 42 43 44 45 46 47 46 45 44 42 41 40 38 36 36
21 22 23 23 24 23 23 22 23 24 25 26 27 28 28 28 28 27 27 27 27 27 28 30 32 35 36 37 38 39 41 42 45 47 50 51 52 53 53 52 52 51 49 47 46 45 43 42 40 37 37 37 37 36 35 34 35 39 41 41 42 44 44 44 45 46 46 45 43 42 41 41 40 38
22 24 25 26 26 25 24 24 24 25 27 29 29 30 30 29 29 28 28 28 29 29 30 32 33 35 37 38 40 41 42 42 43 45 47 49 52 54 55 56 56 55 53 50 49 49 47 44 42 40 38 37 37 37 38 39 39 41 43 42 43 43 43 43 43 43 45 46 46 44 43 44 43 40
24 25 26 26 26 26 26 26 27 28 29 31 31 31 31 31 31 30 30 30 31 31 32 33 34 37 39 41 42 44 44 44 44 45 46 47 49 51 53 54 54 55 54 52 51 51 50 48 45 43 42 41 40 39 40 41 41 43 45 45 45 44 42 42 42 42 43 45 46 46 45 45 45 43
26 27 27 27 28 28 28 28 29 30 31 32 32 32 33 33 32 32 32 32 33 33 35 36 37 39 41 43 44 46 46 46 46 46 46 46 48 49 51 51 51 51 52 51 49 49 49 49 47 46 45 45 44 43 43 43 43 43 44 45 46 46 45 43 42 41 42 43 45 46 47 47 47 46
26 27 29 29 30 30 30 30 31 31 32 33 33 34 34 34 34 33 33 33 35 36 38 40 41 42 43 45 46 48 48 48 48 47 47 47 48 49 50 50 49 49 50 49 47 47 47 46 46 45 45 45 46 46 46 46 45 45 44 43 43 44 46 46 44 42 41 41 43 45 47 49 50 50
27 28 30 31 31 31 32 32 33 34 34 34 35 36 36 36 36 35 33 34 38 41 42 43 44 45 46 47 49 50 50 50 50 49 49 49 49 49 50 50 49 48 48 47 46 45 45 44 42 42 42 44 45 46 47 47 46 45 43 42 41 40 42 45 45 45 43 43 43 44 46 50 52 54
29 30 30 31 31 33 34 35 36 36 35 36 37 38 37 37 38 37 36 36 39 42 44 45 46 47 48 50 51 51 51 51 51 51 51 52 52 52 52 52 50 49 48 47 46 45 44 43 42 42 42 43 44 46 47 48 47 45 43 41 39 38 38 40 42 44 46 46 45 45 47 50 53 56
32 32 32 32 33 34 36 37 38 37 37 38 39 39 39 38 39 40 40 40 41 44 45 46 47 49 50 52 53 53 53 53 53 52 53 54 55 54 54 54 53 52 50 48 47 47 45 44 44 44 44 45 46 47 48 48 48 47 44 40 38 37 36 37 38 40 42 43 43 43 45 48 51 55
34 34 34 35 36 37 38 38 39 38 38 39 40 41 41 41 41 42 43 44 45 47 48 48 49 51 52 53 54 54 54 54 54 53 54 56 56 56 56 56 56 55 54 51 50 49 47 46 46 46 47 48 49 49 49 49 48 47 44 41 38 37 37 36 37 38 38 40 41 41 43 45 47 50
36 36 36 36 37 38 39 39 39 39 39 40 41 42 42 42 43 43 44 45 47 48 49 49 51 52 54 55 56 55 55 55 55 55 56 57 58 58 58 58 58 57 56 55 53 52 50 49 49 49 49 50 51 51 51 51 49 47 45 42 39 38 38 37 37 37 38 40 42 43 43 43 44 45
37 36 36 37 37 38 39 39 39 40 41 42 42 43 44 44 44 45 45 47 48 49 50 51 53 54 56 56 56 56 56 56 56 56 57 59 59 59 59 60 60 60 59 58 57 56 54 53 53 52 52 52 52 52 52 52 51 48 45 43 40 38 38 39 39 39 40 41 43 44 43 43 44 43
37 37 37 38 38 39 40 40 41 41 42 43 43 44 44 45 45 46 47 49 49 50 51 53 55 56 57 57 57 57 57 57 57 58 59 60 61 61 61 61 62 61 61 61 60 59 58 57 56 55 55 54 53 53 52 52 51 50 47 43 41 39 39 39 40 41 42 43 44 44 43 42 43 42
38 38 39 39 40 41 41 42 42 43 43 44 45 46 47 47 48 48 47 48 50 53 55 56 56 57 57 58 58 58 58 59 59 60 61 62 63 63 63 63 63 63 62 62 62 62 61 60 59 58 57 56 54 53 51 51 50 50 48 45 42 40 40 40 40 41 43 44 45 45 43 42 42 41
41 41 41 42 43 43 44 44 45 45 45 45 46 46 47 48 48 48 47 49 53 56 57 57 57 57 58 58 58 59 59 60 60 61 63 64 64 65 65 65 64 64 63 63 63 63 63 63 61 60 59 58 56 53 51 50 48 48 47 46 43 41 40 40 40 42 43 44 44 44 43 42 42 41
44 43 43 44 44 45 46 46 46 46 46 46 46 46 46 48 49 49 52 54 57 57 57 57 57 58 58 59 59 60 60 61 61 63 64 65 65 66 66 66 65 65 64 64 64 63 63 62 61 61 60 59 58 55 53 50 48 46 45 44 42 40 39 39 40 41 42 43 44 44 43 41 40 41
47 47 47 48 48 49 49 50 49 49 48 48 48 49 50 51 52 54 55 56 57 56 56 57 57 58 59 59 60 60 61 62 63 64 65 66 67 67 67 66 66 65 65 64 63 62 62 61 61 61 60 59 58 57 55 54 51 48 46 43 40 39 38 38 39 40 41 42 43 44 43 40 38 40
48 48 49 50 50 50 50 50 50 51 51 50 50 50 51 52 53 54 55 55 56 56 57 57 58 59 59 60 61 62 63 64 64 65 66 67 67 67 67 66 66 66 65 64 63 62 61 61 60 60 60 59 59 58 58 56 54 51 48 44 41 38 37 37 38 40 40 41 42 44 43 39 37 38
50 50 49 49 49 48 48 48 48 49 50 49 49 49 50 52 53 54 54 55 56 56 57 58 59 60 61 61 62 63 64 65 66 66 67 68 68 67 66 66 65 65 65 65 64 63 62 61 61 60 60 59 59 59 59 58 56 53 49 46 43 40 38 37 37 39 40 41 41 43 43 40 38 38
46 46 46 46 46 46 46 47 47 47 48 48 49 51 52 54 54 55 55 56 57 58 58 59 60 61 62 62 63 64 65 66 67 67 68 68 67 67 66 66 65 65 65 65 65 64 63 62 61 61 60 60 60 59 59 58 56 53 50 46 44 42 40 38 37 38 41 41 40 41 41 40 38 36
44 45 45 45 45 45 46 47 48 49 50 51 53 54 55 55 56 56 57 58 58 59 60 61 61 62 63 64 65 66 67 67 68 68 68 67 67 66 66 66 66 66 66 66 66 65 64 63 62 61 60 60 58 57 57 55 54 51 48 45 43 41 40 39 38 40 42 42 40 39 39 38 36 34
43 44 44 44 44 45 47 48 49 51 52 53 54 55 56 56 57 57 58 59 60 60 61 62 63 64 65 66 67 67 68 68 68 68 67 66 66 66 66 67 67 68 67 67 65 64 63 62 61 60 59 58 56 55 54 52 51 49 46 43 40 39 39 38 39 41 43 43 42 40 37 35 34 33
Wind_Direction
119 122 122 120 115 110 106 110 129 144 148 150 148 143 141 139 135 129 122 114 107 101 96 91 83 75 69 59 48 39 30 21 13 8 4 359 356 353 350 348 347 346 345 346 346 346 346 347 348 348 347 345 343 342 341 341 343 346 347 348 348 348 348 347 347 347 347 347 349 351 352 353 354 355
128 126 124 121 116 110 109 116 135 156 165 165 160 153 150 148 143 136 128 120 114 109 105 100 93 85 73 56 42 30 17 9 2 355 350 345 343 341 340 340 341 342 342 344 344 345 347 347 347 345 343 341 339 339 340 341 343 344 346 346 346 345 345 346 346 347 346 345 345 346 348 350 351 353
147 141 138 130 124 124 131 135 141 156 172 177 171 163 162 161 155 147 140 133 127 121 116 111 102 81 40 9 5 5 359 352 348 344 339 336 335 336 337 339 342 345 346 346 345 345 344 343 341 340 338 337 336 336 338 340 341 343 344 344 343 342 341 341 343 344 345 345 344 344 345 346 347 349
184 172 163 153 149 156 159 154 152 162 181 186 180 177 174 171 168 162 153 145 138 132 123 115 103 37 343 333 333 340 343 340 337 337 336 335 336 338 339 339 342 346 347 345 342 338 336 335 334 334 334 334 334 334 336 337 339 340 342 342 343 343 342 340 340 341 343 344 344 344 343 343 345 346
216 209 197 188 192 196 185 177 170 176 191 194 189 188 182 179 180 174 162 156 156 148 131 134 302 318 324 324 325 331 337 336 334 334 336 339 340 341 340 338 337 340 341 338 333 330 329 328 330 331 332 332 332 331 332 333 334 335 337 338 340 342 343 342 340 339 341 342 343 343 342 341 343 344
224 224 221 216 220 220 210 208 216 213 215 207 195 190 185 183 184 179 166 153 157 193 282 305 323 338 334 329 328 332 337 338 336 335 336 341 342 341 340 338 337 338 338 335 330 328 328 329 330 331 331 330 330 329 328 328 329 331 332 333 336 339 341 341 340 340 340 341 342 343 343 341 341 342
224 228 230 227 228 229 223 223 229 233 232 217 198 189 183 177 175 168 151 129 123 105 342 343 347 350 347 342 338 338 341 340 338 336 336 340 341 340 341 342 342 341 340 337 333 332 333 334 333 331 329 328 327 326 326 325 325 326 327 329 331 334 337 338 338 338 339 340 342 344 344 342 339 340
228 230 232 232 233 234 231 230 232 232 226 213 199 187 174 168 164 155 142 119 91 18 352 351 354 350 344 337 332 336 343 341 337 336 336 339 340 339 342 344 343 340 337 334 332 332 334 334 333 331 329 326 324 322 321 321 321 321 322 323 325 328 330 332 334 334 335 336 339 342 344 342 339 338
231 233 234 233 234 237 237 234 234 228 215 204 194 183 170 165 161 155 151 141 101 336 327 331 336 336 336 331 324 328 339 340 334 331 334 339 339 336 338 340 339 337 334 332 330 331 332 330 330 329 328 326 324 320 316 314 314 316 319 322 324 325 327 327 328 329 329 330 333 336 339 340 339 337
232 234 236 233 233 239 241 237 233 227 215 203 192 180 172 167 164 164 167 177 209 274 304 313 318 324 329 329 324 326 333 336 331 329 333 338 335 332 335 337 334 332 330 328 327 328 328 327 327 326 325 323 320 316 312 311 313 317 321 324 325 325 327 327 325 323 324 325 326 328 331 334 336 335
232 234 236 232 232 239 243 237 228 223 216 206 192 181 176 177 182 186 187 199 220 262 293 302 310 318 323 322 320 321 326 330 328 328 332 335 330 327 329 331 329 328 328 327 327 326 325 323 321 320 318 315 312 312 312 313 315 318 321 324 324 323 325 327 324 320 320 320 321 322 324 326 330 331
234 235 236 233 233 238 243 237 222 216 214 205 191 181 180 192 209 219 230 243 261 289 301 308 313 316 318 317 316 317 321 323 322 324 327 329 326 323 324 327 326 324 325 324 322 320 316 313 311 311 309 307 309 314 318 319 319 320 323 327 329 328 326 325 323 318 317 318 318 318 319 320 323 325
236 236 236 236 235 238 241 234 219 212 210 203 193 189 196 217 240 262 277 287 295 304 312 313 313 318 319 315 315 318 320 318 318 320 322 322 319 316 318 321 320 320 322 319 313 308 304 306 314 318 316 316 316 317 319 323 326 328 329 332 334 332 328 324 321 316 314 315 315 315 315 315 317 319
234 234 236 237 237 236 235 229 217 209 206 205 204 205 218 240 265 282 292 299 304 310 318 318 319 322 319 315 316 318 317 316 318 320 319 317 313 307 306 309 315 322 326 324 318 315 313 316 322 325 326 326 325 322 322 324 329 331 330 330 331 329 327 324 321 316 314 314 315 314 313 312 311 313
232 231 235 237 235 231 228 223 215 208 209 215 221 228 243 263 280 291 298 303 306 312 318 320 321 321 319 318 318 316 317 318 320 320 317 312 305 298 298 304 312 320 322 321 323 326 325 324 326 329 330 328 327 327 326 325 326 327 326 326 327 326 324 322 319 315 313 314 314 314 314 312 309 307
230 229 232 234 231 227 223 216 213 215 219 226 234 247 264 277 285 291 297 302 306 311 316 320 321 320 323 327 322 318 319 319 320 317 310 303 300 301 308 315 319 321 321 321 326 331 329 326 327 331 330 326 325 326 324 321 322 323 322 323 323 321 321 321 318 314 312 311 311 311 311 311 309 305
229 226 226 225 222 221 217 212 216 224 230 237 246 257 269 278 284 290 297 302 306 311 316 321 324 323 327 330 325 320 318 318 319 312 303 300 304 312 322 327 328 328 325 324 327 331 329 325 326 328 325 321 321 320 318 318 319 319 318 318 318 318 318 318 316 313 312 310 308 309 308 307 307 304
226 223 219 217 215 215 215 218 225 233 240 248 256 263 271 279 286 293 300 304 308 313 317 320 324 324 326 326 325 322 319 320 318 311 307 309 312 317 327 332 333 331 326 323 326 329 328 322 320 322 320 317 317 317 316 315 314 313 313 313 313 314 315 314 312 311 311 309 306 307 307 303 302 302
224 220 216 213 213 216 220 226 233 240 247 256 263 270 276 283 289 295 301 303 306 310 313 317 321 323 324 326 327 324 323 323 320 316 317 316 314 320 331 333 333 332 327 324 324 326 327 320 316 319 319 316 315 316 314 312 309 308 309 310 310 312 311 311 310 309 309 307 305 305 304 301 299 299
225 220 216 216 218 222 228 236 242 249 256 263 269 274 279 283 287 294 298 301 304 308 314 319 322 324 326 329 329 327 325 324 322 322 322 317 316 326 334 333 334 333 329 326 323 324 326 321 315 318 318 315 315 314 311 308 306 305 307 309 309 310 310 309 308 308 309 308 307 306 304 302 301 297
227 222 220 223 226 230 237 244 250 256 261 266 271 275 279 282 288 294 297 300 306 313 319 322 322 323 327 329 329 327 325 323 322 322 320 317 321 329 332 333 337 335 330 326 322 323 326 322 317 319 318 316 317 314 310 307 305 305 306 307 307 307 308 307 306 307 308 307 307 307 305 305 304 300
231 229 228 229 231 235 242 249 254 259 264 267 271 276 279 283 290 294 296 301 310 316 318 320 320 322 325 327 328 327 324 321 320 320 319 320 324 328 331 334 336 335 331 324 320 322 325 322 319 319 318 320 321 316 311 309 307 306 306 305 304 305 306 306 305 305 305 306 306 304 303 302 302 301
236 235 233 233 234 238 244 251 257 262 267 271 274 276 279 285 291 293 296 304 311 314 315 317 319 321 322 324 325 323 321 319 318 318 318 320 323 326 329 330 332 335 333 325 320 322 323 322 320 318 317 320 322 316 312 311 310 309 307 304 303 304 304 304 305 304 305 307 305 301 299 299 298 296
242 240 238 236 237 240 246 255 262 267 271 274 277 279 284 288 291 293 298 306 310 311 314 316 317 318 319 320 321 320 319 318 317 316 317 320 323 324 326 327 330 334 333 326 323 323 324 324 322 318 316 319 321 319 317 316 314 310 306 304 303 303 302 302 303 304 305 306 303 300 299 298 295 294
246 244 242 241 243 246 252 258 264 269 273 276 278 281 285 287 288 292 300 304 306 309 312 313 313 314 315 317 318 319 318 317 316 317 320 323 325 326 327 329 332 334 332 328 326 326 327 327 324 320 318 318 320 321 321 321 319 313 309 307 304 302 302 301 301 302 303 302 301 300 300 297 293 292
249 248 248 249 250 252 255 259 264 269 272 275 278 281 284 285 288 294 300 301 303 306 307 308 309 311 313 315 316 317 317 316 316 319 322 325 326 327 329 331 333 334 333 331 329 328 328 328 325 322 319 317 319 321 321 321 320 316 314 312 308 305 304 301 300 300 300 300 300 300 298 297 295 294
251 252 252 253 253 255 257 261 266 270 273 277 280 283 285 286 290 295 298 299 300 302 303 305 307 310 311 313 313 314 315 314 315 318 321 323 324 326 327 329 331 332 331 330 328 326 326 327 325 322 320 319 320 320 319 319 318 317 316 315 312 309 306 302 299 298 298 297 298 298 297 297 297 297
254 255 255 254 255 256 260 264 269 273 276 279 282 285 286 288 290 292 293 294 297 299 301 304 307 308 309 310 311 313 313 313 315 317 320 322 322 324 325 327 328 329 328 327 325 323 323 324 324 323 321 320 320 319 318 317 317 317 316 314 312 310 307 305 302 299 297 296 296 296 296 296 295 293
256 257 256 255 256 260 263 267 271 274 277 279 283 285 287 288 289 289 290 293 297 300 301 303 304 306 307 309 311 312 313 313 314 317 319 320 321 322 323 325 326 326 325 324 323 320 319 319 320 321 320 319 318 318 316 316 316 316 314 311 309 308 307 306 304 301 298 296 295 295 295 295 294 292
258 258 257 257 259 262 265 268 271 273 276 279 282 285 287 288 288 288 290 293 295 297 299 300 302 304 306 308 310 311 312 312 314 317 318 318 319 320 322 324 325 325 324 323 321 318 316 315 316 317 317 317 317 316 315 315 314 313 310 307 305 305 305 303 302 302 300 298 297 298 298 298 297 295
257 258 258 259 261 263 265 268 270 272 275 278 281 284 287 288 288 289 290 291 291 293 295 298 300 302 304 306 308 309 310 311 314 316 317 317 318 320 321 323 325 325 324 323 321 317 315 313 314 315 315 315 316 315 315 315 313 311 308 306 303 304 304 301 299 298 297 296 298 300 300 301 300 296
258 259 260 261 262 263 265 267 269 272 275 278 281 284 285 286 287 289 290 292 293 293 295 297 299 301 303 305 307 308 309 310 313 315 315 316 317 319 320 322 323 323 323 323 321 319 316 313 312 313 313 313 314 314 314 313 311 309 307 305 303 304 305 302 300 297 295 296 299 301 303 304 302 297
259 260 261 262 263 264 265 267 269 272 274 277 280 281 283 284 285 287 289 291 292 293 294 296 298 300 302 304 305 307 307 309 311 313 314 314 316 317 319 320 321 322 322 322 322 320 317 314 312 311 311 311 312 313 313 312 310 308 306 304 303 304 305 305 304 303 303 304 305 304 305 306 304 299
259 260 260 261 262 263 264 266 268 271 273 275 277 279 281 283 284 286 288 289 289 291 293 295 297 299 301 302 304 305 306 308 310 312 313 313 314 316 318 319 319 320 320 321 321 320 319 317 315 313 312 312 313 314 314 313 312 310 307 304 302 302 303 305 306 308 308 308 307 306 307 309 309 304
258 259 260 260 261 263 264 266 268 270 272 274 276 277 279 281 283 285 287 287 289 291 293 295 297 298 300 301 302 304 305 307 310 311 311 312 314 315 316 317 318 318 319 320 320 320 320 319 318 316 315 315 315 315 315 314 312 311 308 304 301 300 302 305 308 309 310 310 309 308 309 312 313 308
258 259 260 261 262 263 264 266 268 270 272 274 276 278 279 280 281 282 283 285 288 291 293 295 296 298 299 300 302 304 305 307 309 310 310 311 313 314 316 316 317 318 318 319 320 320 320 319 318 318 317 316 315 315 314 312 311 310 308 304 300 299 301 304 307 308 309 309 308 308 310 312 313 308
258 260 261 262 263 264 265 266 269 271 273 275 277 279 280 281 280 281 282 284 288 291 293 294 295 297 298 300 302 303 305 307 308 309 310 311 312 314 315 316 317 317 318 319 319 319 319 319 318 317 316 315 315 314 313 311 309 308 307 304 300 298 300 304 307 308 308 308 307 308 309 311 313 310
260 261 263 264 265 266 267 268 270 272 274 276 278 280 282 283 282 282 283 286 288 290 291 293 295 296 298 300 301 303 305 306 307 308 309 310 311 313 314 315 316 316 317 318 318 318 318 318 317 317 316 315 314 313 312 310 308 306 305 304 301 298 299 302 306 308 308 308 307 307 309 310 312 310
263 264 266 267 268 269 270 270 271 272 274 276 278 280 282 283 282 281 283 286 287 289 291 293 295 296 297 299 301 302 304 305 306 307 308 309 310 312 313 314 315 316 316 317 317 317 317 317 316 315 315 314 313 312 311 310 308 306 304 303 300 299 298 301 305 308 309 308 306 306 308 308 308 309
265 266 268 269 270 271 271 271 272 274 275 276 278 280 281 281 281 282 284 286 287 289 291 293 294 296 297 299 301 302 304 305 306 307 308 309 310 311 312 313 314 315 315 316 316 316 316 315 314 314 313 313 312 311 311 310 309 308 306 304 302 299 298 300 304 307 308 308 306 306 306 306 306 309
266 268 269 270 271 271 272 272 273 274 275 277 278 279 280 280 281 283 284 286 288 290 291 292 294 295 297 299 301 302 303 304 305 306 307 308 309 310 311 312 313 314 314 314 314 314 314 313 312 312 311 311 310 310 309 309 309 309 308 306 303 301 299 300 304 306 306 306 305 304 304 304 305 306
268 269 269 270 271 272 273 274 275 276 277 277 277 278 279 281 283 284 286 287 289 290 291 293 294 296 297 299 300 301 302 303 304 305 306 307 308 309 310 311 312 312 312 312 312 312 312 311 311 310 309 308 308 307 307 307 307 306 306 305 304 302 300 300 303 305 304 303 302 302 302 303 305 306
267 268 269 269 271 272 274 275 277 278 278 277 277 279 282 284 285 286 287 288 289 291 292 293 294 296 297 298 299 300 302 303 304 305 306 307 308 309 309 310 310 311 311 311 311 311 311 310 309 308 307 306 305 305 304 304 304 304 304 303 303 302 301 302 303 303 301 299 300 300 299 301 304 306
267 267 268 269 271 273 275 276 277 277 278 278 279 281 283 284 285 286 287 289 290 291 292 293 294 295 297 298 299 301 301 302 303 304 305 306 307 308 308 309 309 310 310 310 310 310 309 308 308 307 306 305 305 304 303 303 302 301 301 301 301 301 301 302 303 301 298 298 299 299 299 300 303 303
268 268 268 269 272 275 276 277 277 278 278 279 279 281 282 283 285 286 287 288 289 291 292 293 294 296 297 299 300 300 301 302 303 304 305 306 307 307 308 309 309 309 309 309 309 308 308 307 307 306 306 305 305 304 303 302 300 299 299 299 300 301 301 301 301 299 297 298 302 303 302 303 304 302
Height
5966 5965 5965 5965 5966 5966 5965 5965 5965 5965 5965 5965 5965 5966 5966 5966 5966 5965 5965 5965 5965 5965 5965 5965 5965 5964 5964 5964 5963 5963 5963 5962 5962 5961 5960 5959 5958 5958 5957 5956 5955 5954 5953 5952 5951 5950 5949 5947 5946 5945 5943 5941 5939 5937 5935 5933 5931 5929 5926 5924 5921 5918 5916 5913 5910 5908 5905 5902 5899 5896 5893 5890 5886 5883
5966 5966 5965 5965 5965 5965 5965 5965 5965 5965 5965 5965 5965 5966 5966 5966 5965 5965 5965 5965 5965 5965 5965 5965 5965 5964 5964 5964 5963 5963 5962 5962 5961 5960 5959 5959 5958 5957 5956 5955 5954 5953 5953 5952 5951 5950 5948 5947 5945 5944 5942 5940 5938 5936 5934 5932 5929 5927 5925 5922 5920 5918 5915 5912 5910 5907 5904 5901 5898 5895 5892 5889 5886 5883
5966 5966 5966 5966 5966 5965 5965 5965 5965 5965 5965 5965 5965 5965 5966 5966 5965 5965 5965 5965 5965 5965 5965 5965 5965 5964 5964 5963 5963 5963 5962 5961 5960 5960 5959 5958 5957 5956 5955 5955 5954 5953 5952 5951 5950 5949 5948 5946 5944 5942 5940 5938 5936 5934 5932 5930 5928 5925 5923 5921 5919 5917 5914 5911 5908 5906 5903 5900 5897 5894 5891 5888 5885 5882
5966 5966 5966 5966 5966 5965 5965 5965 5965 5965 5965 5965 5965 5965 5965 5965 5965 5965 5965 5965 5965 5965 5965 5965 5964 5964 5963 5963 5962 5962 5961 5961 5960 5959 5958 5957 5956 5956 5955 5954 5953 5953 5952 5951 5949 5948 5946 5944 5942 5940 5939 5937 5935 5933 5930 5928 5926 5924 5922 5920 5918 5915 5913 5910 5907 5905 5902 5899 5897 5894 5891 5887 5884 5881
5966 5966 5965 5966 5965 5965 5965 5965 5965 5965 5965 5965 5965 5965 5965 5965 5965 5965 5965 5965 5965 5965 5965 5964 5964 5964 5963 5963 5962 5962 5961 5960 5959 5959 5958 5957 5956 5955 5954 5953 5952 5952 5951 5950 5948 5946 5944 5942 5940 5939 5937 5935 5933 5931 5929 5927 5925 5923 5921 5918 5916 5914 5912 5909 5906 5903 5901 5898 5896 5893 5890 5887 5884 5881
5965 5965 5965 5965 5965 5965 5965 5965 5964 5964 5964 5964 5964 5964 5964 5964 5964 5964 5965 5965 5965 5964 5964 5964 5964 5964 5963 5963 5962 5961 5961 5960 5959 5958 5957 5956 5955 5954 5953 5952 5951 5951 5950 5948 5946 5944 5942 5940 5939 5937 5935 5933 5931 5928 5926 5924 5922 5920 5918 5916 5914 5912 5910 5907 5905 5902 5899 5897 5894 5892 5889 5886 5883 5880
5965 5964 5964 5965 5964 5964 5964 5964 5964 5964 5964 5964 5964 5964 5964 5964 5964 5964 5964 5964 5964 5964 5963 5963 5963 5963 5963 5962 5961 5961 5960 5959 5958 5957 5955 5954 5954 5953 5952 5951 5950 5949 5947 5946 5944 5942 5940 5939 5937 5935 5933 5931 5928 5926 5924 5922 5920 5918 5916 5914 5912 5910 5908 5906 5903 5900 5898 5895 5893 5890 5888 5885 5882 5879
5963 5963 5964 5964 5964 5963 5963 5963 5963 5963 5963 5963 5963 5963 5963 5963 5963 5963 5964 5964 5964 5963 5963 5963 5962 5962 5961 5961 5960 5960 5959 5958 5956 5955 5954 5953 5952 5951 5951 5950 5949 5947 5945 5943 5941 5940 5938 5936 5935 5933 5931 5929 5927 5924 5922 5920 5918 5915 5913 5911 5910 5908 5906 5904 5901 5899 5896 5894 5891 5889 5887 5884 5881 5878
5962 5962 5962 5963 5963 5962 5962 5962 5962 5963 5963 5963 5963 5963 5963 5963 5963 5963 5963 5963 5963 5963 5962 5962 5961 5961 5960 5960 5959 5958 5958 5957 5955 5954 5953 5952 5951 5950 5949 5948 5947 5945 5943 5941 5939 5937 5936 5934 5932 5930 5928 5926 5924 5922 5919 5917 5915 5913 5911 5909 5907 5906 5904 5902 5900 5897 5895 5892 5890 5887 5885 5883 5880 5877
5960 5961 5961 5962 5962 5961 5961 5961 5961 5962 5962 5962 5962 5962 5962 5962 5962 5963 5963 5963 5963 5962 5962 5961 5960 5959 5959 5958 5957 5956 5955 5955 5954 5953 5952 5951 5949 5948 5947 5946 5944 5943 5941 5939 5937 5935 5933 5931 5929 5927 5925 5923 5920 5918 5916 5914 5911 5909 5908 5906 5905 5903 5902 5900 5898 5895 5893 5890 5888 5885 5883 5880 5878 5876
5959 5959 5960 5960 5960 5960 5960 5960 5961 5961 5961 5961 5962 5962 5962 5962 5962 5962 5962 5962 5962 5961 5961 5960 5959 5958 5957 5956 5955 5954 5953 5952 5952 5951 5950 5949 5947 5946 5945 5944 5942 5941 5939 5937 5935 5933 5931 5929 5926 5924 5921 5918 5915 5913 5912 5910 5908 5906 5904 5903 5901 5899 5898 5896 5894 5892 5890 5887 5885 5882 5880 5878 5876 5873
5957 5958 5958 5959 5959 5959 5959 5960 5960 5961 5961 5961 5961 5961 5961 5961 5961 5961 5961 5961 5961 5960 5960 5959 5958 5957 5956 5955 5954 5953 5951 5951 5950 5948 5948 5947 5945 5943 5942 5941 5940 5938 5937 5935 5932 5929 5926 5923 5921 5919 5917 5914 5912 5910 5908 5907 5905 5903 5901 5899 5897 5895 5893 5892 5890 5888 5886 5883 5881 5879 5877 5874 5872 5871
5955 5956 5957 5957 5958 5958 5958 5959 5960 5960 5960 5960 5961 5961 5961 5961 5960 5960 5960 5959 5959 5959 5958 5958 5956 5956 5955 5953 5952 5951 5950 5948 5947 5946 5945 5943 5942 5940 5939 5938 5937 5934 5933 5930 5927 5924 5920 5917 5916 5914 5912 5910 5908 5906 5904 5902 5901 5900 5897 5895 5893 5891 5889 5888 5886 5884 5881 5879 5877 5875 5874 5871 5869 5867
5953 5954 5955 5955 5956 5957 5957 5958 5959 5959 5959 5960 5960 5960 5960 5960 5959 5959 5958 5957 5957 5957 5956 5956 5955 5954 5953 5951 5950 5949 5947 5946 5945 5943 5942 5940 5938 5936 5935 5935 5934 5932 5928 5925 5923 5920 5915 5912 5912 5911 5908 5906 5903 5901 5899 5898 5897 5895 5893 5891 5889 5887 5885 5883 5882 5880 5878 5876 5874 5872 5871 5868 5866 5864
5951 5952 5952 5953 5954 5955 5956 5956 5957 5958 5958 5958 5959 5959 5959 5958 5958 5957 5956 5955 5954 5954 5954 5954 5953 5952 5951 5950 5948 5946 5945 5944 5941 5940 5938 5935 5932 5930 5932 5934 5935 5932 5925 5919 5919 5918 5913 5908 5907 5906 5904 5901 5898 5896 5894 5893 5892 5890 5887 5885 5883 5881 5880 5879 5877 5876 5874 5872 5870 5868 5867 5865 5863 5861
5949 5950 5950 5951 5952 5953 5954 5955 5956 5957 5957 5957 5957 5957 5957 5957 5956 5955 5954 5953 5952 5952 5951 5952 5951 5949 5949 5948 5945 5943 5942 5940 5939 5936 5932 5928 5926 5928 5932 5934 5934 5931 5923 5916 5916 5916 5912 5905 5903 5903 5901 5897 5895 5893 5890 5888 5887 5885 5882 5879 5877 5875 5874 5874 5873 5871 5870 5868 5866 5864 5863 5862 5860 5857
5948 5948 5949 5949 5950 5951 5952 5953 5954 5955 5955 5956 5956 5956 5955 5955 5954 5953 5953 5952 5951 5950 5949 5949 5949 5947 5946 5945 5943 5941 5939 5937 5935 5931 5927 5926 5928 5931 5933 5931 5930 5927 5920 5914 5914 5914 5910 5904 5901 5901 5898 5894 5892 5890 5887 5884 5882 5880 5877 5874 5872 5871 5869 5869 5868 5867 5865 5864 5861 5859 5858 5858 5857 5854
5946 5946 5947 5948 5948 5949 5951 5951 5952 5953 5954 5954 5954 5954 5953 5953 5952 5951 5951 5950 5949 5948 5947 5947 5947 5946 5944 5943 5941 5938 5935 5933 5930 5925 5924 5925 5926 5930 5931 5929 5927 5923 5916 5910 5910 5911 5908 5901 5897 5899 5896 5891 5889 5886 5883 5880 5877 5875 5873 5870 5867 5866 5865 5864 5863 5861 5860 5859 5857 5855 5853 5852 5852 5851
5944 5945 5945 5946 5947 5948 5949 5949 5950 5951 5951 5952 5952 5952 5951 5951 5950 5949 5949 5948 5947 5946 5946 5945 5944 5944 5942 5940 5938 5934 5931 5928 5923 5920 5922 5920 5918 5923 5928 5925 5923 5920 5913 5906 5904 5905 5905 5898 5892 5893 5892 5887 5885 5883 5880 5877 5873 5870 5869 5866 5864 5862 5861 5859 5857 5856 5855 5854 5852 5850 5849 5848 5847 5846
5942 5943 5944 5944 5945 5946 5946 5947 5948 5948 5949 5950 5950 5949 5949 5948 5948 5948 5947 5946 5946 5945 5944 5942 5941 5940 5939 5937 5935 5931 5927 5923 5918 5916 5916 5913 5912 5920 5924 5921 5919 5915 5909 5904 5899 5898 5900 5895 5888 5888 5887 5883 5881 5880 5877 5874 5871 5867 5865 5862 5860 5858 5856 5854 5852 5851 5850 5848 5847 5846 5845 5843 5842 5841
5941 5941 5942 5942 5943 5944 5944 5944 5945 5946 5947 5947 5947 5947 5946 5946 5946 5946 5945 5944 5943 5942 5941 5939 5937 5935 5935 5934 5932 5928 5923 5920 5915 5912 5911 5910 5912 5917 5918 5915 5914 5910 5903 5899 5894 5892 5893 5890 5884 5881 5881 5879 5878 5876 5873 5870 5867 5865 5862 5859 5855 5853 5851 5850 5848 5846 5845 5844 5843 5842 5841 5839 5837 5836
5939 5939 5940 5940 5941 5941 5942 5942 5943 5943 5944 5945 5945 5944 5944 5944 5944 5943 5942 5942 5941 5940 5938 5936 5934 5932 5931 5930 5929 5925 5921 5916 5912 5909 5909 5910 5909 5910 5910 5910 5909 5908 5903 5895 5889 5887 5888 5886 5880 5876 5874 5875 5875 5872 5868 5866 5863 5861 5859 5856 5852 5849 5846 5845 5845 5843 5841 5839 5838 5837 5836 5834 5832 5831
5936 5937 5938 5938 5939 5939 5939 5939 5940 5940 5941 5942 5942 5941 5941 5941 5941 5940 5940 5939 5939 5937 5936 5934 5932 5930 5929 5928 5927 5924 5920 5915 5910 5906 5906 5907 5904 5902 5903 5903 5902 5903 5901 5893 5886 5884 5883 5882 5878 5873 5869 5870 5871 5869 5866 5863 5860 5857 5854 5851 5848 5846 5842 5839 5839 5838 5836 5834 5833 5831 5830 5829 5827 5826
5934 5935 5935 5936 5936 5937 5937 5937 5937 5937 5938 5938 5938 5938 5938 5938 5938 5937 5936 5936 5935 5934 5933 5931 5929 5927 5926 5926 5925 5923 5919 5914 5909 5904 5901 5901 5900 5898 5897 5896 5894 5894 5893 5887 5881 5879 5879 5877 5875 5871 5866 5863 5864 5864 5863 5861 5857 5852 5848 5846 5844 5841 5838 5835 5832 5831 5830 5829 5827 5825 5824 5823 5822 5821
5932 5932 5933 5933 5934 5934 5934 5934 5934 5934 5934 5934 5935 5935 5935 5935 5934 5934 5933 5932 5932 5931 5929 5928 5927 5925 5924 5923 5922 5921 5917 5914 5909 5904 5899 5895 5892 5890 5889 5888 5886 5885 5884 5881 5875 5872 5872 5871 5869 5866 5863 5860 5858 5858 5857 5856 5853 5847 5843 5842 5839 5836 5833 5831 5828 5826 5824 5822 5821 5820 5819 5816 5815 5815
5929 5930 5930 5930 5930 5931 5931 5931 5931 5931 5931 5931 5932 5932 5931 5931 5931 5930 5930 5929 5928 5927 5926 5925 5924 5923 5921 5920 5919 5918 5915 5912 5908 5905 5900 5895 5889 5885 5882 5880 5877 5875 5874 5872 5869 5865 5864 5864 5862 5860 5858 5857 5856 5853 5851 5850 5848 5843 5839 5836 5834 5831 5828 5825 5823 5821 5819 5816 5814 5814 5812 5809 5808 5809
5926 5927 5927 5927 5927 5928 5928 5928 5928 5928 5927 5928 5928 5928 5928 5927 5927 5926 5926 5925 5925 5924 5923 5922 5921 5920 5918 5917 5916 5914 5912 5909 5906 5903 5900 5897 5892 5887 5883 5880 5877 5872 5869 5867 5864 5860 5858 5857 5856 5854 5852 5851 5850 5848 5847 5844 5842 5839 5835 5832 5828 5825 5822 5819 5817 5815 5813 5810 5808 5806 5805 5804 5803 5802
5923 5924 5924 5925 5924 5924 5924 5924 5924 5924 5924 5924 5924 5924 5924 5923 5923 5922 5922 5921 5921 5920 5919 5918 5917 5916 5914 5913 5911 5910 5907 5905 5903 5900 5898 5895 5892 5887 5884 5881 5878 5873 5869 5866 5863 5859 5855 5852 5851 5848 5846 5844 5842 5841 5840 5838 5836 5834 5831 5828 5823 5819 5815 5813 5811 5809 5807 5805 5802 5800 5799 5798 5796 5795
5921 5921 5921 5921 5921 5921 5921 5921 5921 5921 5921 5920 5920 5920 5920 5919 5919 5918 5918 5917 5917 5916 5915 5914 5913 5912 5910 5908 5906 5904 5902 5900 5897 5896 5894 5892 5889 5885 5882 5880 5877 5873 5868 5865 5861 5858 5854 5851 5848 5845 5842 5839 5837 5835 5833 5831 5830 5828 5825 5822 5819 5814 5810 5806 5804 5802 5801 5800 5797 5795 5792 5790 5789 5788
5918 5918 5918 5917 5917 5917 5917 5917 5917 5917 5917 5917 5916 5916 5916 5915 5915 5914 5914 5913 5913 5912 5911 5909 5908 5907 5905 5903 5901 5899 5896 5894 5892 5890 5888 5887 5885 5882 5879 5876 5873 5870 5866 5862 5858 5855 5851 5848 5845 5842 5839 5836 5833 5831 5828 5826 5824 5822 5818 5815 5813 5810 5807 5802 5798 5796 5795 5793 5791 5789 5787 5784 5782 5780
5913 5913 5913 5913 5913 5913 5913 5913 5913 5913 5913 5913 5912 5912 5911 5911 5910 5909 5909 5909 5908 5907 5906 5905 5903 5902 5900 5898 5896 5894 5891 5889 5886 5884 5882 5880 5878 5876 5873 5870 5868 5865 5862 5858 5854 5850 5847 5844 5841 5838 5836 5833 5830 5826 5823 5820 5817 5815 5812 5809 5806 5805 5802 5798 5794 5791 5788 5786 5784 5782 5780 5778 5775 5772
5907 5908 5908 5908 5908 5908 5908 5908 5908 5908 5909 5908 5908 5907 5907 5906 5906 5904 5904 5903 5903 5902 5901 5900 5898 5897 5895 5893 5891 5889 5886 5884 5881 5879 5877 5874 5871 5869 5866 5863 5861 5859 5856 5853 5849 5846 5842 5839 5836 5833 5830 5828 5825 5822 5819 5815 5811 5808 5806 5803 5801 5798 5796 5793 5790 5787 5784 5781 5779 5776 5774 5772 5769 5765
5901 5902 5902 5903 5903 5903 5903 5903 5903 5904 5904 5904 5903 5903 5902 5902 5901 5900 5899 5898 5897 5896 5895 5894 5893 5891 5889 5887 5885 5883 5881 5878 5876 5874 5871 5868 5865 5863 5860 5857 5854 5852 5850 5847 5845 5841 5838 5834 5831 5828 5825 5822 5819 5816 5813 5810 5806 5803 5800 5797 5795 5792 5789 5787 5784 5781 5778 5775 5773 5770 5769 5766 5763 5759
5896 5896 5897 5897 5898 5898 5898 5898 5899 5899 5899 5899 5899 5898 5898 5897 5896 5896 5894 5893 5892 5891 5890 5889 5887 5885 5884 5882 5880 5877 5875 5873 5871 5869 5866 5863 5860 5857 5854 5851 5848 5845 5843 5841 5838 5836 5833 5829 5826 5823 5820 5816 5813 5809 5805 5802 5800 5797 5794 5791 5788 5786 5783 5781 5778 5775 5771 5769 5766 5764 5762 5760 5756 5752
5891 5891 5892 5892 5893 5893 5893 5894 5894 5895 5895 5895 5894 5894 5893 5892 5891 5890 5889 5888 5887 5886 5885 5883 5881 5879 5877 5876 5874 5871 5869 5867 5865 5863 5860 5857 5854 5851 5848 5845 5842 5839 5836 5834 5831 5829 5826 5823 5820 5817 5814 5810 5807 5804 5799 5794 5792 5791 5788 5784 5781 5779 5776 5774 5771 5768 5765 5762 5760 5757 5754 5752 5749 5745
5886 5887 5887 5888 5888 5888 5889 5889 5890 5890 5890 5890 5889 5888 5887 5887 5886 5885 5884 5883 5882 5880 5879 5877 5875 5873 5871 5869 5867 5865 5863 5861 5858 5856 5853 5850 5847 5844 5841 5838 5835 5832 5829 5826 5823 5820 5818 5815 5813 5810 5808 5804 5801 5799 5795 5789 5785 5783 5781 5778 5775 5772 5769 5767 5764 5761 5759 5756 5753 5750 5748 5745 5742 5738
5881 5882 5882 5883 5883 5883 5884 5884 5885 5885 5884 5884 5883 5882 5881 5881 5880 5879 5878 5877 5876 5874 5873 5871 5869 5867 5865 5863 5861 5858 5856 5854 5851 5848 5846 5843 5839 5837 5834 5831 5828 5825 5822 5819 5816 5813 5810 5807 5804 5802 5801 5798 5795 5793 5789 5785 5780 5776 5773 5771 5769 5766 5762 5760 5758 5755 5753 5750 5747 5744 5741 5738 5736 5733
5876 5876 5877 5877 5878 5878 5879 5879 5879 5879 5878 5878 5877 5876 5875 5874 5873 5872 5872 5871 5870 5868 5866 5864 5862 5860 5858 5856 5854 5852 5850 5847 5844 5841 5838 5836 5833 5830 5827 5824 5821 5818 5815 5811 5808 5805 5802 5799 5796 5793 5791 5789 5787 5785 5783 5780 5776 5771 5767 5764 5762 5759 5756 5753 5751 5749 5746 5743 5741 5738 5735 5732 5729 5726
5869 5870 5871 5872 5872 5873 5873 5873 5873 5872 5872 5871 5870 5870 5869 5868 5868 5867 5866 5865 5863 5861 5860 5858 5856 5854 5852 5850 5848 5845 5843 5841 5838 5835 5832 5829 5826 5823 5820 5817 5815 5812 5808 5804 5801 5797 5794 5791 5788 5785 5782 5779 5777 5775 5774 5772 5769 5766 5762 5758 5754 5752 5749 5747 5744 5742 5739 5737 5734 5731 5729 5726 5723 5720
5863 5864 5865 5866 5866 5867 5866 5866 5866 5866 5865 5865 5864 5864 5863 5863 5862 5861 5859 5858 5856 5855 5853 5851 5849 5847 5845 5843 5841 5838 5836 5833 5831 5828 5825 5822 5819 5816 5813 5810 5807 5804 5801 5798 5794 5791 5787 5784 5780 5777 5774 5771 5768 5766 5763 5761 5760 5757 5754 5750 5747 5745 5742 5740 5738 5735 5733 5730 5728 5725 5722 5719 5716 5713
5860 5860 5861 5860 5860 5860 5860 5860 5860 5859 5858 5858 5858 5857 5857 5856 5855 5854 5853 5851 5850 5848 5846 5844 5842 5840 5838 5836 5834 5831 5829 5826 5823 5821 5818 5815 5812 5809 5806 5804 5800 5797 5794 5791 5787 5784 5781 5777 5773 5770 5766 5763 5760 5757 5755 5752 5750 5748 5745 5742 5739 5737 5735 5733 5730 5728 5726 5724 5721 5719 5715 5712 5709 5706
5856 5856 5856 5855 5855 5854 5854 5854 5854 5853 5852 5852 5851 5851 5850 5849 5848 5847 5846 5844 5843 5841 5839 5837 5835 5833 5831 5829 5827 5824 5822 5819 5816 5813 5811 5808 5805 5802 5799 5797 5793 5790 5787 5784 5780 5777 5774 5771 5767 5763 5760 5756 5753 5750 5747 5745 5742 5740 5737 5734 5731 5729 5728 5726 5723 5721 5719 5717 5715 5712 5709 5705 5702 5700
5851 5851 5851 5850 5849 5849 5849 5848 5847 5847 5846 5845 5845 5844 5843 5842 5841 5840 5838 5837 5835 5834 5832 5830 5828 5826 5824 5822 5820 5817 5814 5812 5809 5806 5803 5800 5798 5795 5792 5789 5786 5783 5779 5776 5773 5769 5766 5764 5760 5756 5753 5749 5746 5742 5739 5736 5734 5732 5729 5727 5724 5721 5719 5717 5715 5714 5712 5711 5708 5705 5702 5699 5695 5692
5844 5844 5844 5844 5843 5843 5843 5842 5841 5841 5840 5839 5838 5837 5836 5835 5834 5832 5831 5829 5828 5826 5824 5822 5820 5818 5816 5814 5811 5809 5806 5804 5801 5798 5795 5793 5790 5787 5784 5781 5778 5775 5771 5768 5765 5762 5759 5756 5753 5749 5745 5742 5739 5735 5732 5729 5727 5724 5722 5720 5717 5715 5712 5710 5708 5706 5705 5703 5700 5697 5695 5692 5689 5686
5836 5836 5836 5836 5836 5836 5836 5835 5835 5834 5834 5833 5832 5831 5829 5828 5826 5825 5823 5822 5820 5818 5816 5814 5812 5810 5808 5805 5803 5800 5798 5795 5793 5790 5787 5784 5781 5779 5775 5772 5769 5766 5763 5760 5757 5754 5751 5748 5745 5742 5738 5734 5731 5728 5725 5722 5720 5717 5715 5713 5711 5708 5706 5704 5702 5700 5698 5696 5692 5688 5686 5684 5681 5679